www.pogodaiklimat.ru

Погода и климат >> Архив погоды >> Чехия >> Кучарловице


ПОГОДА в Кучарловице

  • Прогноз погоды в Кучарловице
  • Монитор погоды в Кучарловице

АРХИВ ПОГОДЫ в Кучарловице

Время (UTC), дата Ветер
(напр.,м/с)
 
Видим.   Явления Облачность Т
(С)
Тd
(С)
f
(%)
Тe
(С)
Тes
(С)
Комфортность P
(гПа)
Po
(гПа)
Тmin
(С)
Tmax
(С)
R
(мм)
R24
(мм)
S
(см)
10 10.07 З 6 >70 км 9/3 1500 м
[Cu med, cong Ac cuf]
+17.1 +5.7 47 +16 +18 1017.2 977.7
11 10.07 СЗ 6 >70 км 9/3 1500 м
[Cu med, cong Ac cuf]
+18.4 +4.6 40 +18 +20 1016.8 977.5
12 10.07 СЗ 6
{12}
>70 км 8/3 1500 м
[Cu med, cong Ac cuf]
+19.5 +4.0 36 +20 +22 1016.5 977.3
13 10.07 СЗ 5 >70 км 5/4 1500 м
[Cu hum Ac cuf]
+21.6 +4.2 32 +22 +26 комфорт 1015.5 976.7
14 10.07 СЗ 5
{11}
>70 км 8/8 1500 м
[Cu med, cong]
+20.2 +3.4 33 +21 +22 комфорт 1015.4 976.4
15 10.07 СЗ 7
{11}
70 км 8/6 2000 м
[Cu hum Ac cuf]
+20.7 +3.4 32 +21 +21 комфорт 1015.2 976.2
16 10.07 СЗ 6 35 км н/о +21.5 +3.6 31 +22 +22 комфорт 1014.7 975.9
17 10.07 СЗ 4 35 км н/о +20.0 +3.8 34 +21 +21 комфорт 1015.0 976.0
18 10.07 С 3
{11}
50 км 4/4 2000 м
[Cu hum Ac cuf]
+18.9 +4.3 38 +19 +20 1015.2 976.0 +22.9
19 10.07 С 2 40 км 3/1 1500 м
[Cu hum Ac cuf]
+17.1 +4.8 44 +17 +17 1015.3 975.9
20 10.07 СЗ 1 40 км 1/0
[Ac cuf]
+15.7 +4.7 48 +17 +17 1015.9 976.3
21 10.07 С 2 35 км н/о +14.9 +4.9 51 +15 +15 1015.9 976.2
22 10.07 СЗ 2 35 км н/о +13.2 +5.0 58 +13 +13 1016.2 976.2
23 10.07 С 2 35 км н/о +12.5 +5.2 61 +12 +12 1016.2 976.1
00 11.07 С 3 35 км н/о +11.6 +5.3 65 +10 +10 1016.1 975.9
01 11.07 СЗ 2 35 км н/о +12.0 +5.4 64 +11 +11 1015.7 975.6
02 11.07 СЗ 3 35 км н/о +11.0 +5.8 70 +9 +9 1015.4 975.2
03 11.07 СЗ 3 35 км {дымка} н/о +10.9 +5.9 71 +9 +9 1015.3 975.1
04 11.07 СЗ 3 35 км н/о +11.7 +6.1 68 +10 +10 1015.3 975.2
05 11.07 С 2 35 км н/о +13.4 +7.0 65 +13 +13 1015.2 975.3
06 11.07 С 3 40 км 4/0
[Ac trans Cc]
+16.9 +6.7 51 +17 +20 1014.6 975.2 +5.3
07 11.07 СЗ 3 50 км 4/0
[Cc]
+19.5 +6.9 44 +20 +27 1014.2 975.2
08 11.07 СЗ 4 50 км 5/4 1500 м
[Cu hum Ci sp]
+21.0 +6.5 39 +22 +27 комфорт 1013.8 975.0
09 11.07 СЗ 3 50 км 6/6 1500 м
[Cu hum]
+20.5 +5.7 38 +22 +27 комфорт 1013.6 974.7
10 11.07 С 4 50 км 8/8 1500 м
[Cu med, cong]
+21.5 +5.4 35 +22 +24 комфорт 1013.0 974.3
11 11.07 З 5 50 км 9/6 1500 м
[Cu med, cong Ac cuf]
+22.3 +6.5 36 +23 +25 комфорт 1012.7 974.1
12 11.07 З 4 50 км 8/6 2000 м
[Cu med, cong Ac cuf]
+22.9 +5.3 32 +23 +26 комфорт 1012.1 973.6
13 11.07 З 5 50 км 5/4 2000 м
[Cu hum Ac cuf]
+23.0 +5.4 32 +23 +27 комфорт 1011.7 973.2
14 11.07 З 6 50 км 5/4 2000 м
[Cu hum Ac cuf]
+24.3 +6.1 31 +24 +27 комфорт 1011.2 972.9
15 11.07 З 6-11
{12}
50 км 6/4 2000 м
[Cu hum Ac cuf Ci sp]
+24.4 +6.2 31 +24 +26 комфорт 1011.1 972.8
16 11.07 З 5 35 км н/о +22.3 +6.2 35 +23 +23 комфорт 1011.4 972.8
17 11.07 З 5 35 км н/о +21.9 +6.6 37 +23 +23 комфорт 1011.5 972.9
18 11.07 СЗ 3
{12}
50 км 8/0
[Ac As Ci sp]
+20.7 +7.0 41 +22 +22 комфорт 1011.8 973.0 +25.8
19 11.07 СЗ 2 40 км 9/0
[Ac As]
+20.1 +7.5 44 +22 +22 комфорт 1012.0 973.1
20 11.07 40 км 9/0
[Ac As]
+19.3 +7.7 47 1012.5 973.5
21 11.07 СЗ 1 35 км {дымка} н/о +18.9 +7.8 48 +21 +21 комфорт 1012.7 973.7
22 11.07 З 1 35 км н/о +18.3 +8.1 51 +20 +20 1013.0 973.9
23 11.07 СЗ 2 35 км н/о +17.7 +8.5 55 +18 +18 1012.9 973.7
00 12.07 СЗ 2 35 км в посл. час дождь {ливн. осадки} н/о +17.3 +9.2 59 +18 +18 1012.6 973.4 0.0
01 12.07 З 4 35 км н/о +17.7 +9.5 59 +17 +17 1012.5 973.3
02 12.07 СЗ 3 35 км н/о +17.3 +10.3 63 +17 +17 1012.2 973.0
03 12.07 З 3 30 км слаб. ливневой дождь {морось} н/о +15.7 +12.0 79 +15 +15 1012.4 973.0
04 12.07 СЗ 2 24 км слаб. ливневой дождь н/о +15.3 +12.7 84 +15 +15 1012.8 973.3
05 12.07 З 3 19 км слаб. дождь н/о +14.9 +13.3 90 +14 +14 1013.1 973.6
06 12.07 З 2 9000 м слаб. дождь 10/0 1230 м
[As op]
+14.6 +14.0 96 +14 +15 1013.4 973.8 +14.5 2
07 12.07 СЗ 2 10 км слаб. дождь 10/3 150 м
[Frnb As op]
+14.8 +14.2 96 +14 +15 1013.4 973.9
08 12.07 З 2 13 км слаб. дождь 10/4 240 м
[Frnb As op]
+15.3 +14.7 96 +15 +16 1013.2 973.7
09 12.07 З 2 35 км в посл. час дождь 10/9 300 м
[Sc]
+16.7 +15.2 91 +17 +18 1012.7 973.5
10 12.07 З 4 50 км 10/4 480 м
[Cu Sc As op]
+18.2 +14.1 77 +18 +20 1012.3 973.3
11 12.07 З 4 50 км 10/4 600 м
[Cu hum Ac As]
+18.5 +13.1 71 +19 +21 1012.1 973.1
12 12.07 СЗ 4 50 км {дождь} 9/3 870 м
[Cu hum Ac As]
+20.7 +13.4 63 +23 +27 комфорт 1011.1 972.4 3
13 12.07 З 4 40 км осадки на расстоянии 9/5 900 м
[Cu med, cong Ac As]
+21.4 +12.0 55 +24 +26 комфорт 1010.5 971.9
14 12.07 45 км осадки на расстоянии 9/4 900 м
[Cb cap Ac As Ci sp]
+21.6 +14.0 62 1010.3 971.8
15 12.07 нст 2 50 км 8/3 1050 м
[Cu med, cong Ac As Ci ing]
+22.4 +13.5 57 +25 +29 комфорт 1010.0 971.6
16 12.07 30 км гроза без осадков 9/5 1050 м
[Cb cap Ac inh Ci ing]
+20.7 +12.4 59 1009.7 971.1
17 12.07 Ю 4 35 км гроза без осадков 9/6 1050 м
[Cb cap Ac inh Ci ing]
+19.6 +14.4 72 +21 +22 комфорт 1010.3 971.5
18 12.07 Ю 2 30 км гроза без осадков 6/4 600 м
[Cb cap Ac inh Ci ing]
+17.8 +14.9 83 +18 +18 1010.5 971.5 +22.9 3
19 12.07 З 3 15 км гроза, ливневой дождь 9/9 600 м
[Cb cap]
+16.8 +14.8 88 +17 +17 1011.2 972.0
20 12.07 С 3 10 км гроза, ливневой дождь 9/9 600 м
[Cb cap]
+14.4 +13.3 93 +13 +13 1011.3 971.8
21 12.07 ЮЗ 3 11 км в посл. час дождь {гроза, ливн. осадки} н/о +13.8 +13.5 98 +13 +13 1011.8 972.2
22 12.07 З 2 23 км н/о +13.6 +12.8 95 +13 +13 1011.8 972.1
23 12.07 17 км н/о +13.2 +12.6 96 1011.5 971.8
00 13.07 СЗ 2 19 км {гроза, ливн. осадки} н/о +12.8 +12.1 96 +12 +12 1011.1 971.4 4
01 13.07 СЗ 2 22 км н/о +13.2 +12.1 93 +12 +12 1010.6 970.9
02 13.07 С 3 15 км н/о +13.1 +12.5 96 +12 +12 1010.4 970.7
03 13.07 З 2 22 км {дождь} н/о +13.8 +12.7 93 +13 +13 1010.3 970.7
04 13.07 З 3 9000 м ливневой дождь н/о +13.6 +13.4 99 +12 +12 1010.9 971.3
05 13.07 З 2 18 км слаб. дождь н/о +13.8 +13.4 97 +13 +13 1011.0 971.4
06 13.07 З 3 18 км слаб. дождь 10/4 180 м
[Sc As op]
+13.9 +13.3 96 +13 +13 1011.1 971.5 +12.3 11
07 13.07 З 4 23 км слаб. дождь 10/5 180 м
[Sc As op]
+14.2 +13.6 96 +13 +13 1011.3 971.8
08 13.07 З 3 25 км слаб. дождь 10/3 150 м
[Sc As op]
+15.2 +14.2 94 +14 +16 1011.4 972.0
09 13.07 З 4 23 км слаб. дождь 10/4 180 м
[Cu Sc As op]
+15.8 +14.2 90 +15 +16 1011.4 972.1
10 13.07 З 4 30 км в посл. час дождь 10/5 330 м
[Cu Sc As op]
+16.6 +13.9 84 +16 +17 1011.3 972.1
11 13.07 СЗ 4 13 км в посл. час ливневой дождь 9/5 400 м
[Cu Sc Ac As]
+17.0 +13.7 81 +17 +19 1011.3 972.1
12 13.07 СЗ 4 28 км в посл. час ливневой дождь 9/6 720 м
[Cu Sc Ac As]
+18.9 +13.5 71 +20 +22 1010.8 971.9 3
13 13.07 СЗ 3
{11}
30 км в посл. час ливневой дождь 9/6 630 м
[Cb cap Ac As Ci sp]
+18.4 +14.3 77 +19 +22 1010.7 971.7
14 13.07 СЗ 5-11
{11}
20 км гроза без осадков 8/5 1050 м
[Cb cap Ac As Ci ing]
+21.9 +13.3 58 +25 +27 комфорт 1009.9 971.4
15 13.07 С 4
{19}
30 км гроза без осадков {ливн. осадки} 9/3 600 м
[Cb cap Ac cuf Ci ing]
+15.8 +14.3 91 +15 +17 1011.3 972.0
16 13.07 СЗ 5 35 км в посл. час дождь {ливн. осадки} н/о +17.1 +13.9 81 +16 +16 1010.9 971.8
17 13.07 СЗ 7
{11}
35 км н/о +18.9 +12.0 64 +19 +19 1010.9 972.0
18 13.07 З 4
{19}
45 км 9/1 630 м
[Cu Sc Ac und]
+17.6 +12.1 70 +17 +17 1011.6 972.5 +22.6 11
19 13.07 З 6 15 км слаб. дождь 10/9 500 м
[Cu Sc]
+16.7 +13.2 80 +16 +16 1011.9 972.7
20 13.07 СЗ 4 40 км в посл. час ливневой дождь 4/3 500 м
[Cu Sc Ac As Ci sp]
+15.3 +13.5 89 +14 +14 1012.2 972.8
21 13.07 СЗ 4 35 км {ливн. осадки, дождь} н/о +15.4 +13.4 88 +14 +14 1012.5 973.1
22 13.07 СЗ 4 30 км н/о +15.2 +13.4 89 +14 +14 1012.8 973.3
23 13.07 СЗ 5 30 км н/о +15.2 +13.2 88 +14 +14 1013.0 973.5
00 14.07 СЗ 6 25 км {ливн. осадки, дождь} н/о +14.9 +13.1 89 +13 +13 1013.2 973.7 0.0
01 14.07 СЗ 5 26 км н/о +14.2 +12.3 88 +12 +12 1013.3 973.7
02 14.07 СЗ 5 30 км н/о +14.2 +12.0 87 +12 +12 1013.3 973.7
03 14.07 СЗ 5 29 км н/о +14.1 +12.2 88 +12 +12 1013.5 973.8
04 14.07 СЗ 5 20 км н/о +13.8 +12.1 89 +12 +12 1013.6 973.9
05 14.07 СЗ 5 26 км н/о +14.9 +12.0 83 +13 +13 1013.7 974.1
06 14.07 СЗ 5 30 км 1/0
[Ac lent]
+16.2 +12.2 77 +15 +17 1013.8 974.4 +13.7 0.0
07 14.07 СЗ 5 40 км 1/1 630 м
[Cu hum Ac lent]
+17.7 +12.2 70 +17 +21 1013.9 974.7
08 14.07 СЗ 5 45 км 5/1 750 м
[Cu med, cong Ac cast]
+18.4 +11.9 66 +18 +22 1013.9 974.8
09 14.07 С 5 40 км 5/4 960 м
[Cu med, cong Ac lent Ci fib]
+20.5 +12.2 59 +22 +27 комфорт 1013.3 974.5
10 14.07 С 6
{11}
40 км 5/5 1050 м
[Cb calv Ac lent Ci fib]
+20.6 +12.6 60 +23 +26 комфорт 1013.1 974.3
11 14.07 С 5 35 км 6/5 1110 м
[Cb cap Ac lent Cs]
+21.6 +11.3 52 +24 +28 комфорт 1012.7 974.0
12 14.07 СЗ 5
{11}
25 км гроза без осадков 9/4 1320 м
[Cb cap Ac lent Cs]
+23.0 +11.7 49 +25 +29 комфорт 1012.0 973.6
13 14.07 С 5 35 км 8/5 1380 м
[Cb cap Ac cuf Cs]
+22.8 +8.1 39 +24 +27 комфорт 1012.0 973.5
14 14.07 С 5 30 км осадки на расстоянии 9/8 1440 м
[Cb cap Ac cuf Ci ing]
+22.9 +10.0 44 +25 +26 комфорт 1011.8 973.3
15 14.07 нст 2 15 км гроза без осадков {ливн. осадки} 8/5 1440 м
[Cb cap Ac cast Ci ing]
+21.5 +11.2 52 +23 +26 комфорт 1012.4 973.7
16 14.07 СЗ 4 35 км н/о +23.1 +9.0 41 +25 +25 комфорт 1012.3 973.8
17 14.07 СЗ 5-11
{11}
13 км дождь {ливн. осадки} н/о +17.7 +12.4 71 +17 +17 1013.3 974.1
18 14.07 нст 2
{11}
30 км в посл. час ливневой дождь 3/1 1500 м
[Cb cap Ac cuf]
+17.1 +14.9 87 +17 +18 1013.5 974.3 +24.5 2
19 14.07 З 2 45 км 4/3 1500 м
[Cu Sc Ac As Ci ing]
+16.5 +12.8 79 +17 +17 1014.1 974.7
20 14.07 СЗ 3 50 км 3/1 1380 м
[Sc diur, vesp Ac As Ci ing]
+15.5 +12.4 82 +15 +15 1014.6 975.1
21 14.07 СЗ 3 35 км н/о +15.8 +12.7 82 +15 +15 1014.8 975.3
22 14.07 СЗ 3 35 км н/о +15.2 +12.5 84 +14 +14 1015.1 975.5
23 14.07 СЗ 3 35 км н/о +14.8 +12.6 87 +14 +14 1015.0 975.4
00 15.07 СЗ 3 35 км н/о +13.8 +11.7 87 +13 +13 1015.0 975.2
01 15.07 С 4 35 км н/о +13.1 +11.5 90 +11 +11 1015.1 975.2
02 15.07 СЗ 3 35 км н/о +12.5 +11.0 91 +11 +11 1015.0 975.0
03 15.07 СЗ 4 30 км н/о +12.1 +10.8 92 +10 +10 1014.9 974.9
04 15.07 С 3 30 км н/о +12.0 +10.9 93 +10 +10 1015.0 975.0
05 15.07 С 3 35 км н/о +13.5 +11.4 87 +12 +12 1015.3 975.5
06 15.07 СЗ 3 45 км 8/1 300 м
[St Ac trans]
+16.1 +11.9 76 +16 +17 1015.5 976.0 +11.7
07 15.07 45 км 4/1 750 м
[Cu med, cong Ac trans Cc]
+18.4 +11.9 66 1015.4 976.2
08 15.07 45 км 6/6 900 м
[Cu med, cong Ac trans]
+18.7 +11.5 63 1015.3 976.2
09 15.07 нст 2 45 км 8/6 1000 м
[Cu med, cong Ac cuf]
+19.8 +10.8 56 +22 +26 комфорт 1015.1 976.1
10 15.07 З 3 50 км 8/4 1200 м
[Cu med, cong Ac cuf]
+22.0 +10.8 49 +24 +28 комфорт 1014.4 975.7
11 15.07 СЗ 3 60 км 9/5 1200 м
[Cu med, cong Ac cuf]
+19.7 +11.0 57 +21 +24 комфорт 1014.9 975.9
12 15.07 СЗ 3 60 км 9/3 1200 м
[Cu med, cong Ac cuf]
+20.2 +10.6 54 +22 +26 комфорт 1014.4 975.5
13 15.07 С 4 50 км 8/1 1440 м
[Cu med, cong Ac cuf]
+22.0 +9.9 46 +24 +28 комфорт 1013.9 975.2
14 15.07 50 км 5/4 1500 м
[Cu med, cong Ac cuf]
+23.2 +9.2 41 1013.3 974.8
15 15.07 СЗ 3 50 км 5/4 1500 м
[Cu med, cong Ac cuf]
+23.9 +9.1 39 +25 +28 комфорт 1013.0 974.6
16 15.07 В 3 35 км н/о +20.5 +11.2 55 +23 +23 комфорт 1013.5 974.7
17 15.07 35 км н/о +20.2 +11.9 59 1013.7 974.8
18 15.07 нст 2 45 км 3/1 1500 м
[Sc diur, vesp Ac cuf]
+18.8 +12.3 66 +20 +20 1014.1 975.0 +24.4
19 15.07 С 1 45 км 1/1 1500 м
[Sc diur, vesp Ac lent Ci fib]
+17.2 +11.7 70 +18 +18 1014.5 975.2
20 15.07 З 1 50 км 1/1 1500 м
[Sc diur, vesp Ac lent Ci fib]
+16.5 +11.6 73 +17 +17 1014.9 975.5
21 15.07 СЗ 2 35 км н/о +16.0 +11.6 75 +16 +16 1015.1 975.6
22 15.07 С 2 24 км н/о +13.5 +12.0 91 +13 +13 1015.5 975.7
23 15.07 С 3 30 км н/о +13.6 +11.2 85 +12 +12 1015.5 975.7
00 16.07 С 3 27 км н/о +13.3 +11.3 88 +12 +12 1015.5 975.6
01 16.07 С 3 27 км н/о +13.0 +10.9 87 +12 +12 1015.5 975.6
02 16.07 СЗ 4 24 км н/о +12.6 +10.8 89 +11 +11 1015.5 975.5
03 16.07 С 4 19 км н/о +12.0 +10.5 91 +10 +10 1015.7 975.6
04 16.07 С 3 14 км н/о +11.9 +10.4 91 +10 +10 1015.6 975.5
05 16.07 СЗ 2 15 км н/о +13.5 +11.1 85 +13 +13 1015.5 975.7
06 16.07 СЗ 2 15 км 1/0
[Ci fib]
+15.3 +10.7 74 +15 +19 1015.3 975.7 +11.6
07 16.07 нст 2 18 км 1/1 1500 м
[Sc Ci fib]
+17.2 +11.2 68 +18 +24 1014.9 975.6
08 16.07 20 км 1/1 1000 м
[Cu hum Ci fib]
+19.5 +11.0 58 1014.3 975.3
09 16.07 З 3 27 км 3/3 1200 м
[Cu hum Ci sp]
+21.3 +11.6 54 +23 +32 комфорт 1013.6 974.9
10 16.07 СЗ 4 30 км 6/6 1260 м
[Cu med, cong Ci sp]
+21.4 +11.1 52 +23 +28 комфорт 1013.2 974.5
11 16.07 СЗ 4 40 км 5/5 1500 м
[Cu med, cong Ci fib]
+23.3 +10.4 44 +25 +31 комфорт 1012.5 974.1
12 16.07 СЗ 6
{13}
45 км 5/5 1500 м
[Cu med, cong Ci fib]
+23.6 +9.6 41 +25 +28 комфорт 1012.2 973.8
13 16.07 СЗ 6-11
{11}
45 км 3/3 1500 м
[Cu hum]
+24.8 +8.3 35 +25 +29 комфорт 1012.0 973.7
14 16.07 З 6-12
{12}
50 км 4/4 1500 м
[Cu med, cong]
+26.3 +8.3 32 +26 +29 жарко 1011.6 973.5
15 16.07 С 5
{12}
50 км 4/4 1500 м
[Cu med, cong]
+24.5 +10.8 42 +26 +28 жарко 1011.8 973.5
16 16.07 С 7
{11}
35 км н/о +23.6 +10.8 44 +25 +25 комфорт 1011.9 973.5
17 16.07 СЗ 5
{12}
35 км н/о +22.7 +10.1 45 +25 +25 комфорт 1012.1 973.6
18 16.07 С 3
{12}
50 км ясно +21.3 +9.9 48 +23 +23 комфорт 1012.6 973.9 +26.6
19 16.07 С 2 40 км 1/1 1500 м
[Sc]
+18.9 +9.9 56 +20 +20 1013.3 974.3
20 16.07 С 3 35 км ясно +17.3 +10.0 62 +17 +17 1014.2 974.9
21 16.07 С 3 28 км н/о +16.0 +9.9 67 +16 +16 1014.7 975.2
22 16.07 СЗ 2 25 км н/о +14.4 +9.7 73 +14 +14 1015.3 975.6
23 16.07 СЗ 2 22 км н/о +13.3 +9.6 78 +13 +13 1015.9 976.0
00 17.07 С 2 17 км н/о +12.7 +9.6 81 +12 +12 1016.1 976.1
01 17.07 СЗ 2 19 км н/о +12.3 +9.4 82 +11 +11 1015.8 975.8
03 17.07 С 3 19 км н/о +11.2 +9.0 86 +9 +9 1015.5 975.3
04 17.07 С 3 20 км н/о +11.7 +9.1 84 +10 +10 1015.5 975.4
05 17.07 С 2 27 км н/о +13.5 +10.0 79 +13 +13 1015.3 975.5
06 17.07 С 4 30 км 8/0
[Cs]
+16.4 +10.7 69 +16 +18 1015.0 975.6 +10.9
08 17.07 С 3 40 км 4/1 1020 м
[Cu hum Ci fib]
+19.4 +11.2 59 +21 +29 комфорт 1014.0 975.0
09 17.07 СЗ 3 40 км 5/4 1140 м
[Cu med, cong Ci sp]
+20.5 +10.6 53 +23 +30 комфорт 1013.6 974.8
10 17.07 СЗ 3 45 км 5/5 1300 м
[Cu med, cong Ci sp]
+22.1 +10.9 49 +24 +31 комфорт 1013.1 974.5

 

Местоположение метеостанции Кучарловице (Чехия): широта 48.88 долгота 16.08 высота над уровнем моря 339 м.

В архиве по умолчанию представлена погода в Кучарловице за последнюю неделю. Архивные данные за месяц целиком и за предыдущие месяцы, начиная с января 2011 года, Вы можете получить, выбрав интересующий диапазон дат из раскрывающегося списка и нажав кнопку "Ввод!".


*Определитесь, кто Вы:
робот инопланетянин человек

Внимание! Время в таблицах - всемирное. Для получения местного времени необходимо прибавить поправку, которая равна 1 ч.

Смотрите также архив погоды в соседних городах и на ближайших метеорологических станциях:

Погода в Реце (Австрия) (16 км)
Погода на АЭС Дукованы (Чехия) (25 км)
Погода в Замке Namest nad Oslav (Чехия) (32 км)
Погода в Лейзер Берге (Австрия) (41 км)
Погода в Гарс-ам-Кампе (Австрия) (45 км)
Погода в Пойсдорфе (Австрия) (47 км)
Погода в Мистельбахе (Австрия) (51 км)
Погода в Лангенлойсе (Австрия) (53 км)
Погода в Брно (Чехия) (54 км)
Погода в Церкви Мыслова (Чехия) (56 км)

Пояснения к столбцам:

Ветер - указаны скорость ветра в м/с - средняя за 10 мин, порывы в срок и между сроками (в фигурных скобках) и направление, откуда дует ветер: С - северный, СВ - северо-восточный, В - восточный, ЮВ - юго-восточный, Ю - южный, ЮЗ - юго-западный, З - западный, СЗ - северо-западный.
Видимость - горизонтальная дальность видимости в метрах или километрах. При видимости от 1 до 10 км при отсутствии осадков обычно наблюдается дымка, при ухудшении видимости до 1 км и менее - туман. В сухую погоду видимость может ухудшаться дымом, пылью или мглою.
Явления - указаны атмосферные явления, наблюдавшиеся в срок или в последний час перед сроком; фигурными скобками обозначены явления, наблюдавшиеся между сроками (за 1-3 часа до срока); квадратными скобками обозначены град или гололедные отложения с указанием их диаметра в мм.
Облачность - указаны через наклонную черту общая и нижняя облачность в баллах и высота нижней границы облаков в метрах; квадратными скобками обозначены формы облаков: Ci - перистые, Cs - перисто-слоистые, Cc - перисто-кучевые, Ac - высококучевые, As - высокослоистые, Sc - слоисто-кучевые, Ns - слоисто-дождевые, Cu - кучевые, Cb - кучево-дождевые. Подробнее классификацию облаков см. в Атласе облаков (PDF).
T - Температура воздуха - температура, измеренная на высоте 2 м над землей.
Td - Температура точки росы - температура, при понижении до которой содержащийся в воздухе водяной пар достигнет насыщения.
f - Относительная влажность воздуха - влажноcть воздуха, измеренная на высоте 2 м над землей.
Te - Эффективная температура - температура, которую ощущает одетый по сезону человек в тени. Характеристика душности погоды. При расчете учитывается влияние влажности воздуха и скорости ветра на теплоощущения человека.
Tes - Эффективная температура на солнце - температура, которую ощущает человек, с поправкой на солнечный нагрев. Характеристика знойности погоды. Зависит от высоты солнца над горизонтом, облачности и скорости ветра. Ночью, в пасмурную погоду, а также при ветре 12 м/с и более поправка равна нулю.
P - Атмосферное давление - приведенное к уровню моря атмосферное давление.
Po - Атмосферное давление - измеренное на уровне метеостанции атмосферное давление.
Tmin - Минимальная температура - минимум температуры воздуха на высоте 2 м над землей.
Tmax - Максимальная температура - максимум температуры воздуха на высоте 2 м над землей.
R - Количество осадков - Количество выпавших осадков за период времени, мм. При наведении курсора мыши на число - период времени, за который выпало указанное количество осадков.
R24 - Количество осадков - Количество выпавших осадков за 24 часа, мм.
S - Снежный покров - Высота снежного покрова, см. При наведении курсора мыши на число - состояние снежного покрова и степень покрытия местности в баллах.